Location: ??
(35.5653°N, 139.6194°E)
Time: 05:27:37
(UTC+00:00)

Cosmos 972 Rocket - Pass Details

Date: 20 November 2019
Orbit: 713 x 1151 km, 75.8° (Epoch: 11 December)

Event Time Altitude Azimuth Distance (km) Brightness Sun altitude
Rises 19:50:19 0° 187° (S) 3,118 7.2 -18.6°
Reaches altitude 10° 19:52:35 10° 184° (S) 2,224 6.5 -18.2°
Maximum altitude 19:57:31 68° 102° (ESE) 827 4.3 -17.2°
Drops below altitude 10° 20:02:57 10° 20° (NNE) 2,436 6.7 -16.1°
Sets 20:05:30 0° 18° (NNE) 3,440 7.4 -15.6°
